Home > Weather > Bijar > Past weeks

Flag for Iran Past Weather in Bijar, Iran — Yesterday and Last 2 Weeks

Now
72 °F

Sunny.


Feels Like: 75 °F
Forecast: 47 / 74 °F
Wind: 9 mph from West

Location: Sanandaj Airport

Current Time: May 30, 2016 at 9:13:15 PM

Latest Report: May 30, 2016 at 8:24 PM


Visibility: 10 mi

Pressure: 29.92 "Hg (23.94 "Hg at 1927m altitude)

Humidity: 20%

Dew Point: 28 °F

Location of BijarLocation

Past Weather in Bijar — Graph

°F

Bijar Temperature Yesterday

Maximum temperature yesterday: 84 °F (at 1:24 PM)
Minimum temperature yesterday: 52 °F (at 6:30 AM)
Average temperature yesterday: 70 °F

High & Low Weather Summary for the Past Weeks

 TemperatureHumidityPressure
High90 °F (May 18, 2:30 PM)100% (May 26, 6:30 AM)30.15 "Hg (May 26, 6:30 AM)
Low43 °F (May 21, 6:24 AM)9% (May 28, 2:30 PM)29.80 "Hg (May 24, 3:30 PM)
Average68 °F39%29.97 "Hg
* Reported May 15 8:25 PM — May 30 7:30 PM, Bijar, Weather by CustomWeather, © 2016

Note: Actual official high and low records may vary slightly from our data, if they occured in-between our weather recording intervals... More about our weather records

Advertising

Bijar Weather History for the Previous 24 Hours

Scroll right to see more
 ConditionsComfort  
Time TempWeatherWind HumidityBarometerVisibility
7:30 PM
Mon, May 30
77 °FSunny.14 mph12%29.89 "Hg10 mi
6:23 PM79 °FPassing clouds.14 mph12%29.89 "HgN/A
5:30 PM81 °FPassing clouds.14 mph14%29.89 "HgN/A
4:30 PM81 °FPassing clouds.18 mph12%29.89 "HgN/A
3:30 PM81 °FPassing clouds.18 mph13%29.89 "HgN/A
2:30 PM79 °FPassing clouds.14 mph13%29.92 "HgN/A
1:30 PM79 °FPassing clouds.16 mph13%29.92 "HgN/A
12:30 PM77 °FPassing clouds.12 mph15%29.92 "HgN/A
11:30 AM75 °FPassing clouds.12 mph18%29.95 "HgN/A
10:30 AM72 °FPassing clouds.7 mph25%29.95 "HgN/A
10:00 AM70 °FSunny.5 mph27%29.98 "Hg10 mi
9:30 AM66 °FSunny.No wind28%29.98 "Hg10 mi
9:00 AM64 °FSunny.No wind32%29.98 "Hg10 mi
8:30 AM63 °FSunny.No wind32%29.98 "Hg10 mi
8:00 AM57 °FSunny.No wind41%29.98 "Hg10 mi
7:30 AM50 °FClear.No wind62%29.98 "Hg10 mi
7:00 AM48 °FPassing clouds.No wind66%29.98 "HgN/A
6:30 AM48 °FPassing clouds.No wind62%29.98 "HgN/A
5:22 AM48 °FClear.No wind62%29.98 "Hg10 mi
4:24 AM50 °FClear.No wind54%29.98 "Hg10 mi
3:23 AM50 °FClear.2 mph54%29.98 "Hg10 mi
2:24 AM52 °FClear.2 mph58%29.98 "Hg10 mi
1:26 AM55 °FClear.No wind44%29.98 "Hg10 mi
12:22 AM59 °FClear.No wind34%29.98 "Hg10 mi
11:23 PM
Sun, May 29
63 °FClear.2 mph25%30.01 "Hg10 mi
10:23 PM66 °FClear.5 mph22%30.01 "Hg10 mi
9:30 PM70 °FSunny.7 mph20%30.01 "Hg10 mi
Weather by CustomWeather, © 2016

See weather overviewHow to use our weather pages